DLH2KK EDDF-EDDM

Flight info

Callsign DLH2KK
Flight time 0h 33m
Altitude 23000
Route CINDY8S/18 CINDY Z74 HAREM T104 ROKIL ROKIL1A
Aircraft CRJ9/M-SDFGIRWY/S

Departure

Time 2026-04-17 12:13
Airport Frankfurt Main Airport (EDDF)

Arrival

Time 2026-04-17 12:47
Airport Munich Airport (EDDM)
Time Latitude Longitude Altitude Speed Heading
2026-04-17 11:44 50.04045 8.55544 349 ft 0 kts 160°
2026-04-17 12:05 50.04041 8.55546 349 ft 2 kts 160°
2026-04-17 12:06 50.04022 8.55557 352 ft 5 kts 160°
2026-04-17 12:06 50.03981 8.55580 349 ft 8 kts 162°
2026-04-17 12:06 50.03952 8.55545 351 ft 6 kts 250°
2026-04-17 12:06 50.03936 8.55478 355 ft 8 kts 249°
2026-04-17 12:07 50.03912 8.55377 349 ft 12 kts 250°
2026-04-17 12:07 50.03880 8.55245 352 ft 14 kts 250°
2026-04-17 12:07 50.03844 8.55093 348 ft 16 kts 249°
2026-04-17 12:07 50.03802 8.54919 352 ft 18 kts 249°
2026-04-17 12:08 50.03757 8.54731 351 ft 20 kts 250°
2026-04-17 12:08 50.03710 8.54534 348 ft 20 kts 249°
2026-04-17 12:08 50.03664 8.54343 336 ft 18 kts 249°
2026-04-17 12:08 50.03619 8.54155 336 ft 19 kts 250°
2026-04-17 12:09 50.03571 8.53953 337 ft 21 kts 250°
2026-04-17 12:09 50.03520 8.53737 333 ft 22 kts 249°
2026-04-17 12:09 50.03469 8.53525 333 ft 21 kts 250°
2026-04-17 12:09 50.03422 8.53327 334 ft 19 kts 249°
2026-04-17 12:10 50.03378 8.53148 334 ft 17 kts 249°
2026-04-17 12:10 50.03343 8.52999 332 ft 10 kts 249°
2026-04-17 12:10 50.03316 8.52888 331 ft 12 kts 250°
2026-04-17 12:10 50.03288 8.52772 329 ft 12 kts 249°
2026-04-17 12:11 50.03261 8.52659 334 ft 10 kts 249°
2026-04-17 12:11 50.03232 8.52596 331 ft 6 kts 191°
2026-04-17 12:11 50.03223 8.52595 331 ft 0 kts 178°
2026-04-17 12:12 50.03222 8.52595 331 ft 1 kts 178°
2026-04-17 12:12 50.03113 8.52596 334 ft 51 kts 179°
2026-04-17 12:12 50.02467 8.52605 333 ft 132 kts 179°
2026-04-17 12:13 50.01362 8.52620 610 ft 171 kts 181°
2026-04-17 12:13 50.00174 8.52636 1635 ft 175 kts 181°
2026-04-17 12:13 49.98918 8.52631 2515 ft 193 kts 180°
2026-04-17 12:13 49.97461 8.52653 2850 ft 226 kts 176°
2026-04-17 12:14 49.95957 8.53644 3395 ft 254 kts 139°
2026-04-17 12:14 49.94918 8.56039 3769 ft 279 kts 117°
2026-04-17 12:14 49.94105 8.58756 3890 ft 278 kts 113°
2026-04-17 12:14 49.93691 8.61711 3917 ft 283 kts 96°
2026-04-17 12:15 49.93061 8.64527 4509 ft 274 kts 130°
2026-04-17 12:15 49.92048 8.66070 5645 ft 264 kts 140°
2026-04-17 12:15 49.91971 8.66173 5706 ft 264 kts 140°
2026-04-17 12:15 49.91168 8.67261 6312 ft 267 kts 139°
2026-04-17 12:16 49.89793 8.69226 7268 ft 271 kts 136°
2026-04-17 12:16 49.88472 8.71363 8162 ft 277 kts 132°
2026-04-17 12:16 49.87226 8.73676 9067 ft 282 kts 128°
2026-04-17 12:16 49.86041 8.76135 9959 ft 287 kts 126°
2026-04-17 12:17 49.84876 8.78670 10558 ft 302 kts 126°
2026-04-17 12:17 49.83607 8.81404 10968 ft 322 kts 126°
2026-04-17 12:17 49.82253 8.84276 11467 ft 338 kts 126°
2026-04-17 12:17 49.80835 8.87262 12108 ft 348 kts 126°
2026-04-17 12:18 49.79399 8.90291 12929 ft 353 kts 127°
2026-04-17 12:18 49.77925 8.93389 13749 ft 359 kts 127°
2026-04-17 12:18 49.76429 8.96519 14491 ft 364 kts 127°
2026-04-17 12:18 49.74915 8.99695 15218 ft 369 kts 127°
2026-04-17 12:19 49.73377 9.02917 15940 ft 374 kts 127°
2026-04-17 12:19 49.71821 9.06163 16629 ft 378 kts 127°
2026-04-17 12:19 49.70246 9.09450 17315 ft 383 kts 127°
2026-04-17 12:19 49.68653 9.12777 17991 ft 387 kts 127°
2026-04-17 12:20 49.67130 9.15952 18605 ft 392 kts 127°
2026-04-17 12:20 49.65494 9.19350 19179 ft 396 kts 127°
2026-04-17 12:20 49.63845 9.22771 19737 ft 399 kts 127°
2026-04-17 12:20 49.62177 9.26236 20295 ft 403 kts 127°
2026-04-17 12:21 49.60496 9.29721 20818 ft 407 kts 127°
2026-04-17 12:21 49.58797 9.33235 21354 ft 411 kts 127°
2026-04-17 12:21 49.57082 9.36776 21873 ft 415 kts 127°
2026-04-17 12:21 49.56551 9.37877 22033 ft 416 kts 127°
2026-04-17 12:22 49.55422 9.40210 22378 ft 418 kts 127°
2026-04-17 12:22 49.53671 9.43812 22843 ft 423 kts 127°
2026-04-17 12:22 49.51891 9.47473 23079 ft 429 kts 127°
2026-04-17 12:22 49.50087 9.51178 23175 ft 435 kts 127°
2026-04-17 12:23 49.48288 9.54872 23215 ft 438 kts 127°
2026-04-17 12:23 49.46463 9.58611 23227 ft 437 kts 127°
2026-04-17 12:23 49.44633 9.62363 23240 ft 438 kts 127°
2026-04-17 12:23 49.42795 9.66110 23244 ft 439 kts 127°
2026-04-17 12:24 49.40957 9.69863 23244 ft 440 kts 127°
2026-04-17 12:24 49.39114 9.73622 23249 ft 442 kts 127°
2026-04-17 12:24 49.37325 9.77260 23248 ft 442 kts 127°
2026-04-17 12:24 49.35474 9.81018 23244 ft 441 kts 127°
2026-04-17 12:25 49.33631 9.84767 23245 ft 440 kts 127°
2026-04-17 12:25 49.31780 9.88513 23245 ft 440 kts 127°
2026-04-17 12:25 49.29930 9.92256 23248 ft 441 kts 127°
2026-04-17 12:25 49.28075 9.96005 23243 ft 442 kts 127°
2026-04-17 12:26 49.26221 9.99747 23243 ft 442 kts 127°
2026-04-17 12:26 49.24355 10.03505 23245 ft 443 kts 127°
2026-04-17 12:26 49.22489 10.07272 23241 ft 444 kts 127°
2026-04-17 12:26 49.21795 10.08665 23241 ft 444 kts 127°
2026-04-17 12:27 49.21236 10.09784 23240 ft 444 kts 127°
2026-04-17 12:27 49.19361 10.13552 23248 ft 445 kts 127°
2026-04-17 12:27 49.17527 10.17221 23237 ft 445 kts 127°
2026-04-17 12:27 49.15606 10.21068 23240 ft 446 kts 127°
2026-04-17 12:28 49.13699 10.24806 23244 ft 446 kts 129°
2026-04-17 12:28 49.11639 10.28351 23240 ft 445 kts 133°
2026-04-17 12:28 49.10179 10.30633 23245 ft 445 kts 135°
2026-04-17 12:28 49.09414 10.31802 23248 ft 444 kts 135°
2026-04-17 12:29 49.07280 10.35070 23248 ft 443 kts 134°
2026-04-17 12:29 49.05137 10.38440 23250 ft 442 kts 133°
2026-04-17 12:29 49.03026 10.41840 23254 ft 441 kts 133°
2026-04-17 12:29 49.00931 10.45186 23252 ft 440 kts 133°
2026-04-17 12:30 48.98801 10.48596 23220 ft 440 kts 133°
2026-04-17 12:30 48.96718 10.51918 22824 ft 428 kts 133°
2026-04-17 12:30 48.94674 10.55165 22316 ft 423 kts 133°
2026-04-17 12:30 48.92653 10.58387 21795 ft 419 kts 133°
2026-04-17 12:31 48.90644 10.61580 21274 ft 415 kts 133°
2026-04-17 12:31 48.88659 10.64737 20789 ft 412 kts 133°
2026-04-17 12:31 48.86712 10.67827 20304 ft 409 kts 133°
2026-04-17 12:31 48.84749 10.70936 19829 ft 406 kts 133°
2026-04-17 12:32 48.82795 10.74020 19351 ft 404 kts 134°
2026-04-17 12:32 48.80849 10.77078 18875 ft 401 kts 134°
2026-04-17 12:32 48.78922 10.80128 18403 ft 399 kts 134°
2026-04-17 12:32 48.77000 10.83152 17882 ft 397 kts 134°
2026-04-17 12:33 48.75080 10.86156 17364 ft 395 kts 134°
2026-04-17 12:33 48.73179 10.89139 16854 ft 392 kts 134°
2026-04-17 12:33 48.71364 10.91972 16366 ft 387 kts 134°
2026-04-17 12:33 48.69548 10.94789 15874 ft 376 kts 134°
2026-04-17 12:34 48.67761 10.97589 15381 ft 363 kts 133°
2026-04-17 12:34 48.66033 11.00296 14899 ft 352 kts 134°
2026-04-17 12:34 48.64346 11.02913 14407 ft 342 kts 134°
2026-04-17 12:34 48.62713 11.05461 13942 ft 332 kts 134°
2026-04-17 12:35 48.61124 11.07926 13522 ft 327 kts 134°
2026-04-17 12:35 48.59542 11.10372 13091 ft 322 kts 134°
2026-04-17 12:35 48.57987 11.12749 12639 ft 313 kts 136°
2026-04-17 12:35 48.56332 11.14817 12210 ft 305 kts 144°
2026-04-17 12:37 48.43916 11.24367 9686 ft 267 kts 154°
2026-04-17 12:37 48.42244 11.25529 9362 ft 262 kts 154°
2026-04-17 12:38 48.40605 11.26661 9012 ft 255 kts 154°
2026-04-17 12:38 48.39022 11.27752 8693 ft 246 kts 154°
2026-04-17 12:38 48.37495 11.28793 8350 ft 242 kts 154°
2026-04-17 12:38 48.35971 11.29824 8021 ft 239 kts 154°
2026-04-17 12:39 48.34531 11.31012 7678 ft 234 kts 135°
2026-04-17 12:39 48.33724 11.33062 7363 ft 228 kts 111°
2026-04-17 12:39 48.33133 11.35275 7019 ft 228 kts 107°
2026-04-17 12:39 48.33041 11.37610 6623 ft 223 kts 82°
2026-04-17 12:40 48.33287 11.39850 6320 ft 205 kts 80°
2026-04-17 12:40 48.33531 11.41855 5990 ft 184 kts 80°
2026-04-17 12:40 48.33705 11.43651 5846 ft 164 kts 82°
2026-04-17 12:40 48.33858 11.45304 5646 ft 153 kts 83°
2026-04-17 12:41 48.33988 11.46784 5411 ft 137 kts 82°
2026-04-17 12:41 48.34071 11.48151 5157 ft 127 kts 85°
2026-04-17 12:41 48.34159 11.49458 5095 ft 125 kts 83°
2026-04-17 12:41 48.34261 11.50818 5015 ft 140 kts 84°
2026-04-17 12:42 48.34374 11.52272 4789 ft 138 kts 83°
2026-04-17 12:42 48.34498 11.53703 4557 ft 139 kts 82°
2026-04-17 12:42 48.34622 11.55141 4329 ft 140 kts 82°
2026-04-17 12:42 48.34734 11.56590 4126 ft 137 kts 84°
2026-04-17 12:43 48.34834 11.57998 3894 ft 132 kts 84°
2026-04-17 12:43 48.34929 11.59392 3860 ft 138 kts 83°
2026-04-17 12:43 48.35043 11.60843 3607 ft 140 kts 82°
2026-04-17 12:43 48.35169 11.62280 3418 ft 138 kts 84°
2026-04-17 12:44 48.35287 11.63714 3295 ft 139 kts 81°
2026-04-17 12:44 48.35395 11.65174 2947 ft 138 kts 84°
2026-04-17 12:44 48.35444 11.66104 2898 ft 134 kts 85°
2026-04-17 12:44 48.35532 11.67505 2719 ft 136 kts 84°
2026-04-17 12:45 48.35640 11.68932 2458 ft 137 kts 83°
2026-04-17 12:45 48.35749 11.70343 2333 ft 136 kts 82°
2026-04-17 12:45 48.35866 11.71767 2134 ft 137 kts 80°
2026-04-17 12:45 48.35984 11.73182 1973 ft 137 kts 81°
2026-04-17 12:46 48.36102 11.74606 1790 ft 137 kts 82°
2026-04-17 12:46 48.36214 11.75999 1631 ft 133 kts 82°
2026-04-17 12:46 48.36319 11.77321 1486 ft 116 kts 82°
2026-04-17 12:46 48.36398 11.78340 1483 ft 79 kts 84°
2026-04-17 12:47 48.36445 11.78949 1481 ft 38 kts 83°
2026-04-17 12:47 48.36449 11.79229 1474 ft 23 kts 96°
2026-04-17 12:47 48.36404 11.79416 1477 ft 15 kts 113°
2026-04-17 12:47 48.36364 11.79555 1474 ft 14 kts 113°
2026-04-17 12:48 48.36335 11.79657 1481 ft 8 kts 113°
2026-04-17 12:48 48.36311 11.79743 1483 ft 9 kts 114°
2026-04-17 12:48 48.36260 11.79782 1483 ft 9 kts 198°
2026-04-17 12:48 48.36232 11.79712 1479 ft 8 kts 265°
2026-04-17 12:49 48.36225 11.79620 1483 ft 9 kts 264°
2026-04-17 12:49 48.36217 11.79519 1482 ft 10 kts 257°
2026-04-17 12:49 48.36169 11.79468 1477 ft 9 kts 180°
2026-04-17 12:49 48.36102 11.79477 1478 ft 10 kts 172°
2026-04-17 12:50 48.36031 11.79490 1479 ft 11 kts 173°
2026-04-17 12:50 48.35954 11.79504 1476 ft 12 kts 173°
2026-04-17 12:50 48.35889 11.79461 1478 ft 11 kts 208°
2026-04-17 12:50 48.35817 11.79459 1476 ft 11 kts 172°
2026-04-17 12:51 48.35739 11.79473 1479 ft 12 kts 173°
2026-04-17 12:51 48.35656 11.79487 1479 ft 13 kts 173°
2026-04-17 12:51 48.35566 11.79502 1473 ft 13 kts 173°
2026-04-17 12:51 48.35470 11.79519 1480 ft 14 kts 173°
2026-04-17 12:52 48.35369 11.79537 1484 ft 15 kts 174°
2026-04-17 12:52 48.35267 11.79554 1480 ft 14 kts 174°
2026-04-17 12:52 48.35176 11.79570 1484 ft 12 kts 173°
2026-04-17 12:52 48.35107 11.79601 1480 ft 10 kts 132°
2026-04-17 12:53 48.35101 11.79701 1478 ft 10 kts 82°
2026-04-17 12:53 48.35110 11.79809 1484 ft 11 kts 84°
2026-04-17 12:53 48.35118 11.79924 1484 ft 11 kts 83°
2026-04-17 12:53 48.35127 11.80042 1473 ft 11 kts 83°
2026-04-17 12:54 48.35135 11.80150 1484 ft 10 kts 85°
2026-04-17 12:54 48.35101 11.80197 1477 ft 7 kts 175°
2026-04-17 12:54 48.35048 11.80205 1479 ft 8 kts 173°
2026-04-17 12:54 48.35037 11.80207 1475 ft 0 kts 173°